#timestamp,LO_Frequency,Hit,StdDev 
1583924415.3,286046984.9,P
1583924435.2,286046976.9,P
1583924455.9,286046974.7,Y
1583924475.7,286046985.8,P
1583924495.6,286046983.9,P
1583924515.4,286046984.2,P
1583924535.3,286046987.1,Y
1583924555.1,286047006.2,P
1583924556.0,286047006.2,N
1583924575.8,286047013.9,N
1583924595.7,286047013.8,N
1583924615.5,286047016.6,N
1583924635.3,286047021.0,N
1583924655.2,286047030.3,N
1583924675.0,286047031.2,N
1583924675.9,286047031.2,N
1583924695.8,286047026.0,N
1583924715.6,286047024.9,N
1583924735.4,286047032.2,N
1583924755.3,286047040.0,Y
1583924775.1,286047021.1,P
1583924795.9,286047018.5,P
1583924815.7,286047018.3,P
1583924835.6,286047016.8,Y
1583924855.4,286046995.7,P
1583924875.2,286046996.4,N
1583924895.1,286046998.8,N
1583924896.0,286046998.8,N
1583924915.8,286047001.6,N
1583924935.7,286047000.4,N
1583924955.5,286046994.9,N
1583924975.3,286046988.8,N
1583924995.2,286046983.3,N
1583925015.9,286046980.2,N
1583925035.7,286046975.8,N
1583925055.6,286046973.6,N
1583925075.4,286046972.2,N
1583925095.2,286046968.4,N
1583925115.1,286046963.1,N
1583925116.0,286046963.1,N
1583925135.8,286046964.9,N
1583925155.7,286046963.2,N
1583925175.5,286046962.6,N
1583925195.3,286046965.6,N
1583925215.2,286046971.5,N
1583925235.0,286046967.7,N
1583925235.9,286046967.7,N
1583925255.7,286046966.2,N
1583925275.6,286046966.8,N
1583925295.4,286046967.6,N
1583925315.3,286046959.9,N
1583925335.1,286046959.4,N
1583925336.0,286046959.4,N
1583925355.8,286046956.0,N
1583925375.7,286046967.8,N
1583925395.5,286046970.9,N
1583925415.3,286046970.2,N
1583925435.2,286046963.5,N
1583925455.0,286046960.5,Y
1583925455.9,286046960.5,P
1583925475.8,286046986.4,N
1583925495.6,286046981.5,N
1583925515.4,286046982.7,N
1583925535.3,286046995.1,N
1583925555.1,286047001.8,N
1583925575.9,286047002.2,N
1583925595.7,286046999.8,N
1583925615.5,286047001.8,N
1583925635.4,286047008.9,N
1583925655.2,286047009.9,N
1583925675.0,286047001.9,N
1583925675.9,286047001.9,N
1583925695.8,286046996.1,N
1583925715.6,286046990.0,N
1583925735.4,286046987.7,N
1583925755.3,286046998.2,N
1583925775.1,286047005.8,N
1583925795.9,286047006.4,N
1583925815.7,286047007.6,N
1583925835.5,286047004.2,N
1583925855.4,286047000.1,N
1583925875.2,286046997.6,N
1583925895.0,286046988.9,N
1583925895.9,286046988.9,N
1583925915.8,286046983.9,N
1583925935.6,286046980.1,N
1583925955.5,286046978.7,N
1583925975.3,286046975.1,N
1583925995.1,286046971.9,N
1583926015.9,286046981.2,N
1583926035.7,286046979.0,N
1583926055.5,286046981.2,N
1583926075.4,286046982.3,N
1583926095.2,286046995.5,N
1583926115.1,286047004.0,N
1583926116.0,286047004.0,N
1583926135.8,286046994.9,N
1583926155.6,286046997.9,N
1583926175.5,286046993.3,N
1583926195.3,286046992.1,N
1583926215.1,286046991.5,N
1583926235.9,286046988.6,N
1583926255.7,286046990.7,N
1583926275.6,286046991.7,N
1583926295.4,286046992.9,N
1583926315.2,286046988.0,N
1583926335.1,286046982.4,N
1583926336.0,286046982.4,N
1583926355.8,286046978.3,N
1583926375.7,286046974.3,N
1583926395.5,286046974.0,Y
1583926415.3,286046982.8,P
1583926435.2,286046987.5,P
1583926455.0,286046995.3,N
1583926455.9,286046995.3,N
1583926475.7,286046992.1,N
1583926495.6,286046992.3,N
1583926515.4,286046994.5,N
1583926535.3,286046990.6,N
1583926555.1,286046986.6,Y
1583926575.8,286046997.3,P
1583926595.7,286047000.7,N
1583926615.5,286047002.7,N
1583926635.4,286046999.0,N
1583926655.2,286046994.4,N
1583926675.0,286046992.0,N
1583926675.9,286046992.0,N
1583926695.8,286046991.7,N
1583926715.6,286046994.3,N
1583926735.4,286046992.0,N
1583926755.3,286046991.1,N
1583926775.1,286046987.2,Y
1583926795.9,286046994.5,P
1583926815.7,286046997.8,P
1583926835.5,286046999.3,N
1583926855.4,286047013.8,Y
1583926875.2,286047029.2,P
1583926895.0,286047033.9,N
1583926895.9,286047033.9,N
1583926915.8,286047035.8,N
1583926935.6,286047030.6,N
1583926955.5,286047029.4,N
1583926975.3,286047022.8,N
1583926995.1,286047016.9,N
1583927015.9,286047010.5,N
1583927035.7,286047008.2,N
1583927055.6,286047008.3,N
1583927075.4,286047009.3,N
1583927095.2,286047010.2,N
1583927115.1,286047010.2,N
1583927116.0,286047010.2,N
1583927135.8,286047009.5,N
1583927155.7,286047014.0,N
1583927175.5,286047009.3,N
1583927195.4,286047013.8,N
1583927215.2,286047008.6,N
1583927235.0,286047007.4,N
1583927235.9,286047007.4,N
1583927255.8,286047003.0,N
1583927275.6,286047010.6,N
1583927295.4,286047006.2,N
1583927315.3,286047009.1,N
1583927335.1,286047008.5,N
1583927355.9,286047006.5,N
1583927375.7,286047011.0,N
1583927395.5,286047026.5,N
1583927415.4,286047029.5,Y
1583927435.2,286047015.0,P
1583927455.1,286047011.4,P
1583927456.0,286047011.4,P
1583927475.8,286047012.7,Y
1583927495.6,286047002.5,P
1583927515.5,286046997.2,N
1583927535.3,286046998.9,N
1583927555.1,286046995.9,N
1583927575.9,286046990.9,N
1583927595.7,286046984.4,N
1583927615.6,286046982.4,N
1583927635.4,286046982.9,N
1583927655.2,286046987.9,N
1583927675.1,286046992.9,N
1583927676.0,286046992.9,N
1583927695.8,286046995.9,N
1583927715.6,286046989.2,N
1583927735.5,286046986.7,N
1583927755.3,286046985.8,N
1583927775.2,286046986.8,N
1583927795.9,286046996.4,N
1583927815.7,286047000.2,N
1583927835.6,286047008.3,N
1583927855.4,286047007.0,N
1583927875.2,286047004.4,N
1583927895.1,286046996.9,N
1583927896.0,286046996.9,N
1583927915.8,286046995.6,N
1583927935.7,286047002.6,N
1583927955.5,286047009.2,N
1583927975.3,286047015.4,N
1583927995.2,286047015.5,N
